Tracking 19149 objects as of 21-Apr-2018
HD Live streaming from Space Station
objects crossing your sky now

FENGYUN 1C DEB

Track FENGYUN 1C DEB now!
10-day predictions


NORAD ID: 31058
Int'l Code: 1999-025BFC
Perigee: 627.9 km
Apogee: 826.4 km
Inclination: 99.6 °
Period: 99.2 minutes
Semi major axis: 7098 km
RCS: 0.0094 m2 (small)
Launch date: May 10, 1999
Source: People's Republic of China (PRC)
Launch site: Taiyaun Space Center, China (TSC)

Note: This is SATELLITE DEBRIS
aabbcc
Your satellite tracking list
Your tracking list is empty




NASA's NSSDC Master Catalog

Two Line Element Set (TLE):
1 31058U 99025BFC 18111.39079760  .00000467  00000-0  11675-3 0  9995
2 31058  99.5976 327.0584 0139831 145.7225 215.3089 14.51742007588835
Source of the keplerian elements: AFSPC